Regional Weather Roundup
Issued by NWS

Home | Current Version | Previous Version | Text Only | Print | Product List | Glossary On
Versions: 1 2 3 4 5 6 7 8 9 10 11 12 13 14 15 16 17 18 19 20 21 22 23 24 25 26 27 28 29 30 31 32 33 34 35 36 37 38 39 40 41 42 43 44 45 46 47 48 49 50
000
ASUS42 KTBW 201710
RWRFL
FLORIDA REGIONAL WEATHER ROUNDUP
NATIONAL WEATHER SERVICE TAMPA BAY RUSKIN FL
100 PM EDT WED AUG 20 2014

NOTE: "FAIR" INDICATES FEW OR NO CLOUDS BELOW 12,000 FEET WITH NO
SIGNIFICANT WEATHER AND/OR OBSTRUCTIONS TO VISIBILITY.


FLZ001>010-012>015-112-114-115-201800-
PANHANDLE FLORIDA

CITY           SKY/WX    TMP DP  RH WIND       PRES   REMARKS
PENSACOLA      MOSUNNY   89  70  53 S5        30.09F
PENSACOLA NAS  PTSUNNY   91  78  65 VRB5      30.09S HX 106
MILTON NAS     PTSUNNY   89  74  60 VRB5      30.10F HX  98
CRESTVIEW      MOSUNNY   92  73  53 W8        30.11F HX 100
DUKE FIELD     MOSUNNY   89  76  64 NW6       30.09F HX 100
VALPARAISO     MOSUNNY   90  76  63 W8        30.09F HX 102
MARY ESTHER    MOSUNNY   89  74  60 SW9       30.09S HX  98
TRI COUNTY     FAIR      90  76  63 VRB3      30.09F HX 101
PANAMA CITY    FAIR      91  73  55 W6        30.08F HX  99
TYNDALL AFB    MOSUNNY   88  78  71 W10       30.11S HX 101
APALACHICOLA   MOSUNNY   88  76  67 W5        30.10S HX  99

STATION/POSITION SKY/WX   TEMP    WIND        PRES    WAVE   SWELL
                          AIR SEA DIR/SP/G            HT/PER HT/PER
                          (F)     (DEG/KT/KT) (MB)    (FT/S) (FT/S)
30.1N   87.6W              84 86  290/  6/  6 1019.4F   1/ 4   2/ 6
29.2N   88.2W              87 90   50/  2/  2 1019.7S
28.8N   86.0W              86 87  290/  4/  6 1019.8R   1/ 3   2/ 6
PANAMA CITY BEAC           84 79  260/  9/ 11 1019.1F
CAPE SAN BLAS    NOT AVBL
TOWER C                    82     320/  6/  7 1019.5R
28.5N   84.5W              85 86  330/  6/  8 1019.7F   1/ 5   2/ 5

$$
FLZ011-016>038-118-127-128-134-139-239-201800-
NORTH FLORIDA

CITY           SKY/WX    TMP DP  RH WIND       PRES   REMARKS
MARIANNA       MOSUNNY   89  77  67 W6        30.08F HX 101
TALLAHASSEE    MOSUNNY   92  73  53 NW9G16    30.09F HX 100
PERRY          MOSUNNY   88  73  62 N9        30.08F HX  96
CROSS CITY       N/A     84  73  69 N10       30.10R
GAINESVILLE    MOSUNNY   90  74  59 NW8G18    30.08F HX  99
MAYPORT NAS    MOSUNNY   90  75  61 SW9       30.06S HX 100
JACKSONVILLE   MOSUNNY   90  72  55 W8        30.05F HX  97
JAX CRAIG      MOSUNNY   91  73  55 W12       30.06F HX  99
JAX CECIL      MOSUNNY   91  73  55 W12       30.07F HX 100
FERNANDINA BEA FAIR      91  73  55 W9        30.04F HX 100
ST AUGUSTINE   MOSUNNY   93  73  52 W9        30.07F HX 102

STATION/POSITION SKY/WX   TEMP    WIND        PRES    WAVE   SWELL
                          AIR SEA DIR/SP/G            HT/PER HT/PER
                          (F)     (DEG/KT/KT) (MB)    (FT/S) (FT/S)
SHELL POINT                86     330/  6/ 11   N/A
KEATON BEACH               85     260/  9/ 10 1019.1F
CEDAR KEY                  87     280/  8/ 10 1019.4F
FERNANDINA                 87 85  250/  8/ 10 1017.1F
30.7N   81.3W                 83                N/A     1/ 8
MAYPORT                    87 85  270/ 10/ 11   N/A
31.4N   80.9W              83 85  260/ 10/ 12 1017.2F   2/ 3   2/ 8
ST AUGUSTINE               90     250/ 11/ 14 1019.0F

$$
FLZ040-043>046-052-053-057-058-063-144-201800-
INTERIOR CENTRAL FLORIDA

CITY           SKY/WX    TMP DP  RH WIND       PRES   REMARKS
OCALA            N/A     91  72  52 W8        30.09F HX  98
LEESBURG       SUNNY     92  73  53 VRB3      30.10F HX 100
SANFORD        MOSUNNY   91  72  53 VRB6      30.09F HX  98
ORLANDO EXEC   SUNNY     92  70  48 W7        30.09F HX  97
ORLANDO INTL   MOSUNNY   91  70  49 CALM      30.09F HX  96
KISSIMMEE      MOSUNNY   91  72  52 W7        30.10F HX  98
WINTER HAVEN   MOSUNNY   93  71  48 CALM      30.11F HX 100
LAKELAND       PTSUNNY   91  72  52 CALM      30.10F HX  98
BARTOW         MOSUNNY   90  66  45 NW6       30.11F
OKEECHOBEE     MOSUNNY   88  73  62 MISG      30.10S HX  96

$$
FLZ041-047-054-059-064-141-147-201800-
EAST CENTRAL FLORIDA

CITY           SKY/WX    TMP DP  RH WIND       PRES   REMARKS
ORMOND BEACH   MOSUNNY   90  73  58 NW12      30.09S HX  98
DAYTONA BEACH  MOSUNNY   91  73  55 VRB6      30.09F HX  99
DELAND         MOSUNNY   90  72  55 SW7       30.10F HX  96
NEW SMYRNA BEA MOSUNNY   88  70  55 MISG      30.09F
JFK SPACE CTR  MOSUNNY   90  79  69 W2        30.09F HX 105
TITUSVILLE     MOSUNNY   90  73  58 NW12      30.10F HX  98
CAPE CANAVERAL SUNNY     91  74  57 VRB3      30.09F HX 101
PATRICK AFB    SUNNY     88  78  72 E8        30.09F HX 101
MELBOURNE      PTSUNNY   90  75  61 N6        30.09F HX 100
VERO BEACH     SUNNY     89  75  63 NE10      30.09F HX  99
FT PIERCE      MOSUNNY   91  74  57 NE8       30.08F HX 100

STATION/POSITION SKY/WX   TEMP    WIND        PRES    WAVE   SWELL
                          AIR SEA DIR/SP/G            HT/PER HT/PER
                          (F)     (DEG/KT/KT) (MB)    (FT/S) (FT/S)
28.5N   80.2W              82 83  320/  8/ 10 1019.7F
28.9N   78.5W              85 86  230/  8/ 10 1019.0F   2/ 5   2/ 5
TRIDENT PIER               88 81  100/  6/  9 1018.7F
28.4N   80.5W                 83                N/A     1/ 8
27.6N   80.2W                 83                N/A     1/ 8

$$
FLZ050-056-061-142-242-148-248-149-249-151-251-155-255-
160-260-201800-
WEST CENTRAL FLORIDA

CITY           SKY/WX    TMP DP  RH WIND       PRES   REMARKS
CRYSTAL RIVER  FAIR      90  72  55 W7        30.10S HX  96
INVERNESS      PTSUNNY   90  66  45 CALM      30.10F
BROOKSVILLE    MOSUNNY   93  73  52 NW12      30.11F HX 102
ZEPHYRHILLS    FAIR      91  70  49 W8        30.11F HX  97
CLEARWATER     SUNNY     91  76  61 NW9       30.10F HX 103
TAMPA INTL     MOSUNNY   87  74  64 SW3       30.10F HX  95
TAMPA EXEC     MOSUNNY   90  75  62 CALM      30.11F HX 100
MACDILL AFB    SUNNY     93  78  61 VRB5      30.10F HX 109
ST PETERSBURG  MOSUNNY   88  75  65 S8        30.09F HX  97
SARASOTA       MOSUNNY   94  73  50 W10       30.09S HX 103
VENICE           N/A    N/A N/A N/A MISG        N/A

STATION/POSITION SKY/WX   TEMP    WIND        PRES    WAVE   SWELL
                          AIR SEA DIR/SP/G            HT/PER HT/PER
                          (F)     (DEG/KT/KT) (MB)    (FT/S) (FT/S)
CEDAR KEY                  87     280/  8/ 10 1019.4F
28.5N   84.5W              85 86  330/  6/  8 1019.7F   1/ 5   2/ 5
27.3N   84.3W                 89                N/A     1/ 8
CLEARWATER BEACH           87 89  310/  8/  9 1019.5F
MIDDLE TAMPA BAY           89     190/  1/  2 1019.9S
VENICE                     87 90  290/ 11/ 12 1018.8F

$$
FLZ066-069-070-075>078-162-262-165-265-201800-
SOUTHWEST FLORIDA AND KEYS

CITY           SKY/WX    TMP DP  RH WIND       PRES   REMARKS
PUNTA GORDA    MOSUNNY   93  73  52 VRB7      30.11F HX 102
FT MYERS       PTSUNNY   91  72  53 N7        30.08F HX  98
SOUTHWEST INTL PTSUNNY   90  73  57 VRB3      30.09F HX  98
NAPLES         PTSUNNY   93  81  67 VRB3      30.08F HX 113
MARCO ISLAND   PTSUNNY   91  75  59 W8        30.08F HX 102
MARATHON       MOSUNNY   89  77  67 N6        30.08F HX 101
KEY WEST NAS   MOSUNNY   91  75  59 E6        30.09S HX 101
KEY WEST INTL  CLOUDY    88  75  65 S5        30.09F HX  97

STATION/POSITION SKY/WX   TEMP    WIND        PRES    WAVE   SWELL
                          AIR SEA DIR/SP/G            HT/PER HT/PER
                          (F)     (DEG/KT/KT) (MB)    (FT/S) (FT/S)
VENICE                     87 90  290/ 11/ 12 1018.8F
NAPLES                     87     320/  9/ 11 1019.2F
DRY TORTUGAS               85      90/  7/  8 1018.7F
NW FL BAY                  88      70/  4/  6 1019.2S
SAND KEY                   85      10/  4/  5 1019.2S
SOMBRERO KEY               86      30/  4/  5 1019.5F
LONG KEY                   87 91   80/  5/  7 1019.4F
MOLASSES REEF              85 88  130/  3/  4 1018.7F

$$
FLZ067-068-071>074-168-172>174-201800-
SOUTHEAST FLORIDA

CITY           SKY/WX    TMP DP  RH WIND       PRES   REMARKS
W PALM BEACH   PTSUNNY   91  76  61 CALM      30.07F HX 103
FT LAUDER-EXEC MOSUNNY   92  78  63 E6        30.07F HX 107
FT LAUDERDALE  MOSUNNY   91  75  59 E8        30.07F HX 101
POMPANO BEACH    N/A     91  76  61 E10       30.08F HX 103
PEMBROKE PINES PTSUNNY   91  76  61 NE5       30.09S HX 103
OPA LOCKA      MOSUNNY   91  74  57 NE7       30.08F HX 100
MIAMI          PTSUNNY   91  74  57 SE9       30.07F HX 100
WEST KENDALL   MOSUNNY   95  72  47 E5        30.07F HX 103
HOMESTEAD      MOSUNNY   91  75  60 E8        30.07F HX 102

STATION/POSITION SKY/WX   TEMP    WIND        PRES    WAVE   SWELL
                          AIR SEA DIR/SP/G            HT/PER HT/PER
                          (F)     (DEG/KT/KT) (MB)    (FT/S) (FT/S)
PORT EVERGLADES            88      80/  5/  7 1018.6
VIRGINIA KEY               86 89   90/  7/  8   N/A
LAKE WORTH                 86 87  110/  6/  7 1018.5F
FOWEY ROCKS                86 89  110/  5/  5 1019.1F
SETTLEMENT POINT           86     280/  3/  4 1019.3F

$$



USA.gov is the U.S. government's official web portal to all federal, state and local government web resources and services.